Torna al catalogo

TITAN 3C TRANSTAGE DEB

LostMEO
NORAD 38700·DEBRIS·🇺🇸 United States

Lanciato Sep 26, 1968 da Cape Canaveral Space Force Station

Loading…

Prossimi Passaggi (prossime 24 ore)

TLE

ObsoletoSource: Space-Track

Epoca: Jun 18, 2026, 21:11 UTC

1 38700U 68081AA  26169.88318736 -.00000034  00000-0  00000-0 0  9997
2 38700   2.2674  62.8746 0119163 211.5875 147.2341  1.02725216 64619

Traccia TITAN 3C TRANSTAGE DEB in tempo reale con AllMySat

Download on the App Store